This is the latest recevied weather packets stored in our database for station/object CX5ACA-13. If no packets are shown the sender has not sent any weather packets the latest 10 day(s).
| Time | Temp. | Humidity | Pressure | Rain* | Wind** | Luminosity | Snow |
|---|---|---|---|---|---|---|---|
| 1777931233 | 16.67° C | 79% | 1011.6 hPa | 0 mm | - | 0 W/m² | - |
| 1777930930 | 16.67° C | 78% | 1011.6 hPa | 0 mm | - | 0 W/m² | - |
| 1777930626 | 16.67° C | 79% | 1011.5 hPa | 0 mm | - | 0 W/m² | - |
| 1777930323 | 17.22° C | 78% | 1011.5 hPa | 0 mm | - | 0 W/m² | - |
| 1777930020 | 17.22° C | 78% | 1011.5 hPa | 0 mm | - | 0 W/m² | - |
| 1777929716 | 17.22° C | 78% | 1011.5 hPa | 0 mm | - | 0 W/m² | - |
| 1777929413 | 17.22° C | 78% | 1011.5 hPa | 0 mm | - | 0 W/m² | - |
| 1777929110 | 17.22° C | 78% | 1011.2 hPa | 0 mm | - | 1 W/m² | - |
| 1777928808 | 17.78° C | 77% | 1011.4 hPa | 0 mm | - | 2 W/m² | - |
| 1777928504 | 17.78° C | 77% | 1011.6 hPa | 0 mm | - | 3 W/m² | - |
| 1777928201 | 17.78° C | 76% | 1011.5 hPa | 0 mm | - | 5 W/m² | - |
| 1777927898 | 17.78° C | 74% | 1011.5 hPa | 0 mm | - | 8 W/m² | - |
| 1777927597 | 18.33° C | 72% | 1011.8 hPa | 0 mm | - | 10 W/m² | - |
| 1777927296 | 18.33° C | 71% | 1012 hPa | 0 mm | - | 11 W/m² | - |
| 1777926994 | 18.33° C | 70% | 1012 hPa | 0 mm | - | 14 W/m² | - |
| 1777926692 | 18.33° C | 68% | 1012.1 hPa | 0 mm | - | 19 W/m² | - |
| 1777926391 | 18.89° C | 64% | 1011.7 hPa | 0 mm | - | 23 W/m² | - |
| 1777926089 | 18.89° C | 64% | 1011.6 hPa | 0 mm | - | 25 W/m² | - |
| 1777925785 | 18.89° C | 63% | 1011.5 hPa | 0 mm | - | 28 W/m² | - |
| 1777925483 | 19.44° C | 61% | 1011.8 hPa | 0 mm | - | 37 W/m² | - |
| 1777925180 | 20° C | 60% | 1011.3 hPa | 0 mm | - | 40 W/m² | - |
| 1777924876 | 20° C | 61% | 1011.3 hPa | 0 mm | - | 56 W/m² | - |
| 1777924573 | 20° C | 59% | 1011.3 hPa | 0 mm | - | 74 W/m² | - |
| 1777924269 | 20° C | 60% | 1011.3 hPa | 0 mm | - | 87 W/m² | - |
| 1777923966 | 20° C | 59% | 1011.1 hPa | 0 mm | - | 103 W/m² | - |
* Rain latest hour (hover to see other rain measurements)
** Current wind speed in m/s (hover to see current wind gust speed)